Voltar ao catálogo

COSMOS 970 DEB

AtivoLEO
NORAD 64971·DEBRIS·🇷🇺 Russia

Lançado Dec 21, 1977 de Baikonur Cosmodrome

Loading…

Próximas Passagens (próximas 24 horas)

TLE

AtualizadoSource: Space-Track

Época: Sep 12, 2026, 23:48 UTC

1 64971U 77121CG  26255.99231734  .00000047  00000-0  13932-3 0  9995
2 64971  65.8281 253.2811 0135209 161.1742 230.1106 13.67959011639477

Acompanhe COSMOS 970 DEB em tempo real com AllMySat

Download on the App Store